Location: Ffm
(50.0000°N, 8.5000°E)
Time: 10:12:52
(UTC+01:00)

Envisat - Pass Details

Date: 31 October 2020
Orbit: 764 x 766 km, 98.1° (Epoch: 03 December)

Event Time Altitude Azimuth Distance (km) Brightness Sun altitude
Rises 18:28:05 0° 199° (SSW) 3,220 6.6 -13.9°
Reaches altitude 10° 18:30:45 10° 212° (SSW) 2,299 6.0 -14.4°
Maximum altitude 18:34:57 26° 268° (W) 1,484 5.4 -15.0°
Drops below altitude 10° 18:39:10 10° 324° (NW) 2,313 5.9 -15.7°
Sets 18:41:52 0° 337° (NNW) 3,244 6.5 -16.2°
